Volver al catálogo

STARLINK-35096

ActivoComunicacionesVLEO
NORAD 65479·PAYLOAD·🇺🇸 United States

Lanzado Sep 3, 2025 desde Cape Canaveral Space Force Station

Loading…

Próximos Pases (próximas 24 horas)

TLE

ActualizadoSource: CelesTrak SupGP

Época: Sep 15, 2026, 04:04 UTC

1 65479C 25195X   26258.16993056 -.00021160  00000+0 -68045-3 0  2580
2 65479  53.1580  96.5606 0001293  85.1353 327.1880 15.31712337    10

Sigue STARLINK-35096 en tiempo real con AllMySat

Download on the App Store